Location: Castle
(40.7167°S, 175.9500°E)
Time: 00:56:20
(UTC+00:00)

BlueWalker 3 - Visible Passes

Search period start: 13 October 2024 00:00
Search period end: 23 October 2024 00:00
Orbit: 472 x 484 km, 53.2° (Epoch: 12 October)

Date Brightness Start Highest point End Pass type
(mag) Time Alt. Az. Time Alt. Az. Time Alt. Az.
13 Oct 3.8 06:58:53 10° SSW 07:01:50 20° SSE 07:04:45 10° ESE visible
13 Oct 1.9 08:36:24 10° SW 08:39:58 76° SW 08:39:58 76° SW visible
14 Oct 1.8 08:07:55 10° SW 08:11:46 81° SE 08:12:44 48° ENE visible
15 Oct 1.9 07:39:26 10° SW 07:43:16 71° SE 07:45:33 23° ENE visible
15 Oct 4.6 09:18:40 10° W 09:19:44 13° WNW 09:19:44 13° WNW visible
16 Oct 2.1 07:10:54 10° SW 07:14:42 63° SE 07:18:23 11° ENE visible
16 Oct 4.1 08:49:51 10° W 08:52:18 17° NW 08:52:35 16° NW visible
17 Oct 4.1 08:21:02 10° W 08:23:47 19° NW 08:25:29 15° NNW visible
18 Oct 4.0 07:52:15 10° WSW 07:55:14 22° NW 07:58:11 10° N visible
19 Oct 3.8 07:23:29 10° WSW 07:26:39 25° NW 07:29:46 10° N visible
